Regional Weather Roundup
Issued by NWS Sioux Falls, SD

Home | Current Version | Previous Version | Graphics & Text | Print | Product List | Glossary On
Versions: 1 2 3 4 5 6 7 8 9 10 11 12 13 14 15 16 17 18 19 20 21 22 23 24 25 26 27 28 29 30 31 32 33 34 35 36 37 38 39 40 41 42 43 44 45 46 47 48 49 50
000
ASUS43 KFSD 182010
RWRFSD

WEATHER ROUNDUP FOR SE SOUTH DAKOTA/SW MINNESOTA/NW IOWA
NATIONAL WEATHER SERVICE SIOUX FALLS SD
200 PM CST THU DEC 18 2014

NOTE: "FAIR" INDICATES FEW OR NO CLOUDS BELOW 12,000 FEET WITH NO
SIGNIFICANT WEATHER AND OR OBSTRUCTIONS TO VISIBILITY.


SDZ038>040-050-052>070-182100-
SOUTHEAST SOUTH DAKOTA

CITY           SKY/WX    TMP DP  RH WIND       PRES   REMARKS
CHAMBERLAIN    CLOUDY    27  24  87 S6        30.10S WCI  20
HURON          CLOUDY    25  21  85 S9        30.14F WCI  15
MADISON        MOCLDY    23  23 100 S9        30.14F WCI  13
MITCHELL         N/A     27  23  85 S8        30.16S WCI  19
SIOUX FALLS    CLOUDY    25  21  85 S7        30.16F WCI  17
WINNER         CLOUDY    30  24  78 SW7       30.07F WCI  23
YANKTON        CLOUDY    28  23  80 S8        30.18F WCI  20
$$

MNZ071-072-080-081-089-090-097-098-182100-
SOUTHWEST MINNESOTA

CITY           SKY/WX    TMP DP  RH WIND       PRES   REMARKS
FAIRMONT       CLOUDY    21  16  79 CALM      30.21F
JACKSON        CLOUDY    25  19  80 SE5       30.19F WCI  19
LUVERNE        CLOUDY    28  23  80 S7        30.18F WCI  21
MARSHALL       CLOUDY    23  18  80 SE3       30.20F
MONTEVIDEO     CLOUDY    19  18  93 S5        30.23S WCI  13
PIPESTONE      CLOUDY    23  21  93 CALM      30.15F
REDWOOD FALLS  CLOUDY    20  15  81 E6        30.23F WCI  12
TRACY          CLOUDY    24  20  85 CALM      30.20F
WINDOM         CLOUDY    21  18  86 CALM      30.19F
WORTHINGTON    CLOUDY    25  19  80 SW6       30.18S WCI  18
$$

IAZ001>003-012>014-020>022-031-032-NEZ013-014-SDZ071-182100-
NORTHWEST IOWA

CITY           SKY/WX    TMP DP  RH WIND       PRES   REMARKS
CHEROKEE       CLOUDY    27  23  85 S3        30.20S
DENISON        CLOUDY    30  25  80 VRB7      30.18F WCI  23
ESTHERVILLE    CLOUDY    22  17  81 SE3       30.19F
LE MARS        CLOUDY    28  23  80 S7        30.20F WCI  21
ORANGE CITY    MOSUNNY   28  23  80 CALM      30.18S
SHELDON        CLOUDY    27  23  86 S6        30.17F WCI  20
SIOUX CITY     CLOUDY    30  22  72 CALM      30.21S
SPENCER        CLOUDY    26  19  74 SE7       30.19F WCI  18
STORM LAKE     CLOUDY    27  23  86 S7        30.19S WCI  19
$$

ABBREVIATIONS USED IN REMARKS
   TC - TEMPERATURE IN CELSIUS
  WCI - WIND CHILL INDEX
   HX - HEAT INDEX
  VSB - VISIBILITY



USA.gov is the U.S. government's official web portal to all federal, state and local government web resources and services.